User: anonymous   Login
Location: Arthez
(43.0833°N, 0.2500°W)
Time: 09:03:32
(UTC+00:00)
Language:

CZ-4 R/B - Orbit

View from above orbital plane
View from above orbital plane
View from above satellite
View from above satellite

Ground track
Ground track

The orbit data is extracted from the following two-line orbital elements,

1 29507U 06046C   22019.79429563  .00000824  00000-0  67553-4 0  9992
2 29507  97.7507  50.4347 0046231   8.3653 351.8331 15.01295737832618
Epoch (UTC): 19 January 2022 19:03:47
Eccentricity: 0.0046231
inclination: 97.7507°
perigee height: 531 km
apogee height: 595 km
right ascension of ascending node: 50.4347°
argument of perigee: 8.3653°
revolutions per day: 15.01295737
mean anomaly at epoch: 351.8331°
orbit number at epoch: 83261

The dashed part of the orbit path shows where the satellite is in the earth's shadow,  

DLR